Temperature
17 17 17 17 17 17 17 17 17 17 17 17 17 16 16 16 16 16 16 16 16 16 16 16 16 16 16 15 15 15 15 15 15 14 14 14 14 14 14 14 14 14 13
18 17 17 17 17 17 17 17 17 17 17 17 16 16 16 16 16 16 16 16 16 16 16 16 15 15 15 15 15 15 15 15 15 14 14 14 14 13 13 13 13 13 13
17 17 17 17 17 17 17 17 17 17 17 16 16 16 16 16 16 16 16 16 16 15 15 15 15 15 15 15 15 14 14 14 14 14 14 14 13 13 13 13 13 13 13
17 17 17 17 17 17 17 17 17 16 16 16 16 16 16 16 16 16 16 16 15 15 15 15 15 15 15 15 14 14 14 14 14 14 14 14 13 13 13 13 13 13 12
17 17 17 16 17 17 16 16 16 16 16 16 16 16 16 16 16 16 16 15 15 15 15 15 15 15 15 14 14 14 14 14 14 14 14 13 13 12 12 13 13 12 12
17 17 16 16 16 16 16 16 16 16 16 16 16 16 16 16 16 16 15 15 15 15 15 15 15 14 14 14 14 14 14 14 14 14 13 13 13 12 12 12 12 12 12
16 16 16 16 16 16 16 16 16 16 16 16 16 16 16 16 16 15 15 15 15 15 15 15 14 14 14 14 14 14 14 14 14 13 13 13 12 12 12 12 12 11 11
16 16 16 16 16 16 16 16 16 16 16 16 16 16 16 15 15 15 15 15 15 15 15 14 14 14 14 14 14 14 14 14 13 13 13 13 12 11 11 11 11 11 11
16 15 15 15 15 15 15 15 15 15 16 16 15 15 15 15 15 15 15 15 15 15 14 14 14 14 14 14 14 14 13 13 13 13 13 12 11 11 11 11 11 11 11
15 15 15 15 15 15 15 15 15 15 15 15 15 15 15 15 15 15 15 15 15 14 14 14 14 14 14 13 13 13 13 13 13 13 13 12 11 11 11 11 11 10 10
14 14 14 15 15 15 15 15 15 15 15 15 15 15 15 14 14 14 14 14 14 14 14 14 14 13 13 13 13 13 13 13 13 13 12 12 11 11 10 10 10 10 10
14 14 14 14 14 14 15 15 15 15 15 15 15 14 14 14 14 14 14 14 14 14 14 14 13 13 13 13 13 13 13 13 13 12 12 12 11 11 10 10 10 10 9
14 14 14 14 14 14 14 14 14 15 14 14 14 14 14 14 14 14 14 14 14 14 13 13 13 13 13 13 13 13 13 12 12 12 12 11 11 10 10 10 10 9 9
14 14 14 14 14 14 14 14 14 14 14 14 14 14 14 14 14 14 14 13 13 13 13 13 13 13 13 13 12 12 12 12 12 12 11 11 11 10 10 9 9 9 9
13 13 14 13 13 13 14 14 14 14 14 14 14 14 14 14 14 14 14 13 13 13 13 13 13 13 13 12 12 12 12 12 12 11 11 11 11 10 10 9 9 9 9
13 13 13 13 13 13 13 13 14 14 14 14 14 13 13 13 13 13 13 13 13 13 13 13 13 12 12 12 12 12 12 11 11 11 11 11 10 10 10 9 9 9 8
13 13 13 13 13 13 13 13 13 13 13 13 13 13 13 13 13 13 13 13 13 13 13 12 12 12 12 12 12 11 11 11 11 11 10 10 10 10 10 9 9 8 8
13 13 13 12 13 12 12 13 13 13 13 13 13 13 13 13 13 12 12 12 12 12 12 12 12 12 12 12 11 11 11 11 11 10 10 10 10 9 9 9 9 8 8
12 12 12 12 12 12 12 12 12 12 12 12 12 12 12 12 12 12 12 12 12 12 12 12 12 11 11 11 11 11 11 11 10 10 10 9 9 9 9 8 8 8 8
12 12 12 12 12 12 12 12 12 12 12 12 12 12 12 12 12 12 12 12 12 12 11 11 11 11 11 11 11 10 10 10 10 10 9 9 9 9 8 8 8 8 7
11 11 11 11 12 11 11 11 11 12 12 11 11 11 12 12 12 12 12 11 11 11 11 11 11 11 11 10 10 10 10 10 9 9 9 9 8 8 8 8 7 7 7
11 11 11 11 11 11 11 11 11 11 11 11 11 11 11 11 11 11 11 11 11 11 11 11 11 10 10 10 10 9 9 9 9 9 9 8 8 8 8 7 7 7 7
11 11 11 11 11 11 11 11 11 10 11 11 11 11 11 11 11 11 11 11 11 11 11 10 10 10 10 10 9 9 9 9 8 8 8 8 8 8 7 7 7 7 6
10 10 11 10 10 10 10 10 10 10 10 10 10 10 10 10 10 10 10 10 10 10 10 10 10 10 9 9 9 9 8 8 8 8 8 8 7 7 7 7 6 6 6
9 10 10 10 10 10 10 10 10 10 10 10 10 10 10 10 10 10 10 10 10 10 10 10 9 9 9 9 9 8 8 8 7 7 7 7 7 7 7 6 6 6 6
9 9 9 9 9 10 10 9 9 10 10 10 10 10 10 9 9 9 9 9 9 9 9 9 9 9 8 8 8 8 8 7 7 6 6 7 7 7 7 6 6 5 5
Wind_Speed
7 10 16 15 15 15 16 16 16 17 17 17 16 16 16 16 16 16 16 16 16 16 17 17 17 17 17 17 16 16 16 16 16 16 16 16 15 15 15 15 14 13 14
11 14 17 16 16 16 16 16 16 16 17 16 16 16 16 16 16 16 16 16 16 16 16 16 16 16 16 16 16 16 17 16 16 16 15 14 14 14 15 14 14 12 14
13 15 18 17 17 17 16 16 16 16 16 16 16 16 15 15 15 15 15 15 15 15 15 15 15 15 15 15 15 15 16 16 15 15 14 12 12 14 14 14 14 13 13
14 15 17 18 18 18 17 17 16 15 16 16 16 15 15 15 15 15 15 15 15 15 15 15 14 14 14 14 15 15 15 15 15 14 12 12 11 13 14 13 13 13 13
12 15 17 19 18 18 17 17 16 15 15 15 16 15 15 15 14 15 15 15 15 14 14 14 13 13 14 14 14 15 15 15 15 14 13 12 10 12 13 13 12 12 12
11 14 18 19 19 18 18 17 16 16 15 14 15 15 15 15 15 14 15 14 14 14 13 13 13 13 13 14 14 15 15 15 14 13 12 11 10 12 12 12 11 11 11
11 13 16 18 19 18 18 17 16 16 15 14 15 15 15 14 14 14 14 14 14 13 13 13 12 12 13 13 13 14 14 14 13 12 11 10 10 11 12 11 11 11 11
12 12 15 17 18 18 18 17 17 16 15 14 14 15 14 14 14 14 14 13 13 13 12 12 12 12 12 12 12 13 13 12 11 9 9 9 10 11 11 11 10 10 10
11 10 11 14 15 17 17 17 16 16 15 14 14 14 14 14 14 13 13 13 12 12 12 11 11 11 11 11 12 12 12 12 11 8 7 8 9 9 9 9 9 10 10
9 9 9 12 13 13 15 17 16 16 15 14 14 15 14 14 13 12 12 12 11 11 11 10 10 10 10 11 11 11 11 10 10 8 7 7 8 8 8 9 9 9 9
9 8 9 9 11 12 13 14 16 15 15 14 13 15 14 12 12 11 11 11 11 10 10 10 9 9 9 10 11 11 10 9 8 7 6 7 7 7 8 8 8 8 8
11 9 9 9 10 11 11 12 12 12 12 12 12 14 12 11 11 10 10 10 10 9 9 9 9 8 9 9 9 10 9 8 8 6 6 7 6 6 7 7 7 7 8
11 10 9 9 10 9 8 9 8 9 10 11 12 12 12 11 10 10 8 8 8 8 8 7 7 7 8 8 7 8 8 7 7 5 5 6 6 6 6 7 7 7 7
11 10 9 9 9 9 9 8 8 7 7 9 11 12 11 8 7 7 7 6 6 6 6 6 6 6 7 7 7 7 7 6 5 5 5 5 5 5 6 6 6 7 7
9 10 10 9 8 8 8 7 7 6 7 9 11 12 12 9 6 6 6 6 5 6 6 5 5 5 5 5 6 6 5 5 5 5 4 4 4 4 5 5 6 6 7
8 9 9 9 8 8 6 7 7 7 8 9 9 11 12 11 8 7 6 5 5 6 6 6 5 4 4 4 4 4 5 5 4 4 4 4 4 4 4 5 5 6 7
8 8 9 9 8 8 7 7 7 8 8 8 9 11 12 12 10 8 5 4 5 7 7 6 5 5 3 3 3 2 3 4 4 3 3 3 3 4 4 4 5 6 7
6 7 8 8 8 7 7 7 6 7 8 7 9 10 11 12 12 9 6 4 6 7 6 4 3 3 2 2 1 0 2 3 3 3 3 2 3 3 4 5 5 6 8
6 7 7 7 7 6 6 6 6 5 6 7 8 9 10 11 12 10 6 6 7 5 3 3 2 2 2 1 1 1 0 1 2 2 2 1 1 2 2 4 6 6 7
4 5 6 6 6 6 5 4 3 4 3 5 6 8 10 10 11 10 7 6 7 4 2 2 3 2 2 1 1 1 1 0 1 1 1 1 1 1 2 3 4 5 7
3 4 5 6 6 6 5 5 4 4 3 3 4 7 9 9 10 9 7 6 5 4 4 3 2 2 1 1 2 2 2 2 1 0 0 0 1 1 2 3 4 4 5
4 4 5 7 6 5 5 4 4 4 3 3 3 5 7 8 8 8 7 6 5 4 4 3 3 2 1 1 2 1 1 3 2 1 1 1 1 2 3 4 4 5 6
3 3 4 6 6 5 5 4 4 3 3 2 1 2 4 7 8 7 8 7 6 5 4 4 4 4 3 1 1 2 2 3 3 2 2 1 2 2 3 4 5 6 6
3 2 2 4 6 5 5 6 8 5 5 4 3 2 2 5 7 7 7 7 6 5 4 4 3 2 4 2 1 0 1 2 1 2 3 2 2 3 3 4 5 5 6
2 2 2 3 4 5 5 6 6 5 3 3 3 4 2 2 4 6 7 6 5 4 4 4 3 3 3 3 2 1 1 0 1 1 3 3 3 3 3 4 4 4 6
0 1 1 3 3 4 5 6 5 6 5 5 4 4 3 2 2 4 5 6 5 4 4 4 4 4 3 3 2 2 2 2 1 2 2 3 4 4 3 3 3 4 6
Wind_Direction
159 161 151 144 138 131 126 121 121 119 115 113 110 107 107 108 107 106 105 103 102 100 98 96 94 93 91 89 88 85 83 80 77 74 72 71 72 71 69 66 63 58 59
153 157 149 145 139 133 129 124 121 122 119 116 114 111 109 110 110 109 108 106 104 102 99 97 96 93 92 91 89 86 84 82 78 74 70 66 67 69 68 65 62 61 59
147 152 149 145 141 135 129 126 123 123 122 119 116 114 112 112 113 112 111 108 105 102 100 98 97 95 93 92 90 88 86 83 79 73 66 57 60 67 67 63 61 58 56
145 148 149 146 142 137 132 128 125 125 125 123 120 117 116 115 115 115 113 110 107 104 102 100 98 97 95 93 91 90 88 83 79 73 61 56 58 66 66 61 60 57 54
142 147 150 145 141 137 135 132 128 126 126 127 124 121 120 119 117 115 114 112 109 107 104 102 100 99 98 95 93 90 89 86 79 69 59 54 57 67 64 61 58 55 53
139 145 149 145 143 140 137 135 132 130 126 128 127 125 123 121 118 115 114 114 113 111 108 105 102 101 99 97 96 93 91 87 77 66 59 54 58 67 64 60 56 54 50
138 140 146 147 145 142 139 137 134 132 130 128 132 130 126 123 121 117 114 115 116 115 112 108 104 101 100 99 98 96 95 90 78 67 59 54 62 67 64 60 55 51 47
140 139 142 145 145 144 142 138 136 134 133 129 130 130 128 126 124 121 118 118 117 117 116 112 108 105 100 98 99 99 97 93 81 68 59 56 66 66 63 57 52 49 46
134 134 135 137 140 145 144 141 139 137 136 133 132 128 126 128 126 124 122 120 120 119 118 117 114 109 102 100 102 102 97 91 80 69 63 60 66 65 61 55 51 46 41
135 136 135 134 135 135 140 140 138 138 137 135 131 127 123 122 123 123 123 122 122 122 120 119 119 112 103 101 105 105 100 87 78 69 63 67 66 64 60 55 48 42 38
145 146 139 137 135 135 136 140 139 137 136 134 131 127 123 119 116 116 121 123 124 125 123 120 118 111 103 103 107 105 100 90 81 70 67 69 65 62 59 53 47 40 36
160 159 151 146 144 140 139 136 137 138 136 135 134 131 128 125 121 119 119 118 117 118 120 117 113 106 101 99 103 104 102 97 85 72 70 70 64 59 56 50 43 36 33
165 163 161 155 150 145 138 139 136 137 139 139 138 136 133 127 123 119 114 112 112 110 108 107 103 98 101 103 106 109 108 102 91 79 71 71 63 54 50 45 37 31 27
167 167 163 159 155 149 145 145 142 141 143 146 146 143 137 130 126 125 121 119 113 113 109 105 101 97 100 106 114 117 114 109 100 87 76 72 60 47 41 36 28 23 20
172 171 167 161 157 153 149 151 150 150 150 151 151 151 148 142 140 135 133 130 123 121 116 110 107 100 92 95 112 120 122 121 109 95 82 73 58 40 32 26 19 15 11
169 170 167 166 162 154 155 157 155 155 155 152 154 158 155 151 148 144 138 135 132 132 128 122 115 106 96 97 101 121 129 127 120 106 87 71 51 34 22 16 9 4 2
167 165 166 167 162 159 159 157 155 160 159 155 155 159 159 155 153 148 141 140 141 137 126 117 107 97 86 82 78 119 138 139 131 120 100 84 60 37 17 6 1 358 353
163 165 171 168 163 163 162 156 158 160 158 156 156 156 158 158 155 148 142 146 143 134 127 121 115 98 88 92 96 90 136 142 142 132 115 93 70 40 17 5 355 348 344
163 168 171 162 161 162 155 149 151 148 152 154 154 155 156 156 156 149 144 145 141 128 121 133 119 120 114 94 125 117 125 145 158 144 128 90 56 37 16 360 352 342 339
156 157 157 153 155 152 144 133 131 133 141 143 153 157 155 155 155 147 142 142 140 132 129 131 122 102 118 126 95 55 0 308 155 152 161 101 11 1 353 348 343 332 331
152 142 155 158 163 158 155 156 162 169 168 157 157 155 154 156 154 149 147 145 145 150 154 151 137 117 79 77 73 15 349 336 313 241 155 142 312 337 342 328 328 324 324
165 160 164 170 171 175 174 169 170 164 159 155 142 144 154 154 155 154 155 159 158 152 146 149 138 134 109 93 114 99 343 325 314 305 268 246 291 335 325 313 312 311 313
166 177 176 178 173 175 160 135 124 109 107 110 132 155 161 160 157 155 155 156 157 157 164 167 160 152 164 156 97 138 155 235 289 299 275 278 305 311 310 307 305 306 309
185 188 174 162 162 162 157 159 158 163 172 182 182 178 150 159 158 155 152 153 157 159 166 173 168 162 158 173 192 137 163 166 177 290 301 299 302 292 293 307 306 304 309
191 174 172 162 158 160 161 168 170 169 171 157 155 158 153 154 160 157 155 152 159 161 168 165 166 164 168 172 173 159 137 81 136 195 275 301 309 283 277 282 285 294 305
79 133 149 162 167 161 157 169 175 174 166 156 167 175 173 169 173 167 163 162 163 164 172 175 171 169 174 168 166 165 163 172 200 192 242 284 290 286 283 275 278 286 299
Height
1518 1521 1523 1525 1526 1528 1529 1530 1531 1532 1533 1533 1534 1535 1536 1536 1536 1537 1537 1538 1538 1538 1539 1539 1539 1539 1539 1539 1539 1539 1538 1538 1538 1537 1537 1536 1536 1535 1534 1534 1533 1532 1531
1516 1519 1522 1524 1526 1528 1529 1530 1531 1532 1533 1534 1535 1536 1537 1537 1537 1538 1538 1539 1539 1540 1540 1540 1540 1540 1540 1540 1540 1540 1539 1539 1539 1538 1538 1537 1537 1536 1536 1535 1534 1533 1532
1516 1519 1522 1524 1526 1528 1529 1531 1532 1533 1534 1535 1536 1536 1537 1538 1538 1539 1539 1540 1540 1541 1541 1541 1541 1541 1541 1541 1541 1541 1540 1540 1540 1539 1539 1538 1538 1537 1536 1535 1534 1533 1533
1516 1519 1521 1524 1526 1528 1529 1531 1532 1533 1534 1535 1536 1537 1538 1538 1539 1540 1540 1541 1541 1542 1542 1542 1542 1542 1542 1542 1542 1542 1541 1541 1541 1540 1540 1539 1538 1538 1537 1536 1535 1534 1533
1516 1519 1521 1524 1526 1527 1529 1531 1532 1533 1535 1536 1536 1537 1538 1539 1540 1540 1541 1541 1542 1543 1543 1543 1543 1543 1543 1543 1543 1542 1542 1542 1541 1541 1540 1540 1539 1538 1537 1536 1535 1534 1533
1516 1519 1521 1524 1525 1527 1529 1531 1532 1534 1535 1536 1536 1537 1538 1539 1540 1541 1541 1542 1542 1543 1543 1544 1544 1544 1543 1543 1543 1543 1543 1543 1542 1542 1541 1540 1539 1539 1538 1536 1535 1534 1533
1515 1519 1521 1523 1525 1527 1529 1530 1532 1534 1535 1536 1537 1538 1538 1539 1540 1541 1542 1542 1543 1543 1544 1544 1544 1544 1544 1544 1544 1544 1543 1543 1543 1542 1541 1541 1540 1539 1538 1537 1536 1535 1534
1515 1518 1521 1523 1525 1527 1529 1530 1532 1534 1535 1536 1537 1538 1538 1540 1540 1541 1542 1543 1543 1544 1544 1544 1545 1545 1545 1545 1544 1544 1544 1544 1543 1543 1542 1541 1540 1539 1538 1537 1536 1535 1534
1516 1518 1520 1523 1525 1527 1529 1530 1532 1533 1535 1536 1537 1538 1539 1540 1540 1541 1542 1543 1543 1543 1544 1544 1545 1545 1545 1545 1545 1545 1544 1544 1543 1543 1542 1541 1540 1539 1538 1537 1536 1535 1533
1515 1517 1519 1521 1524 1526 1528 1530 1532 1533 1534 1535 1537 1537 1538 1539 1540 1541 1542 1543 1543 1543 1544 1544 1545 1545 1545 1545 1545 1545 1545 1544 1544 1543 1542 1541 1540 1539 1538 1537 1536 1534 1533
1515 1517 1518 1520 1522 1525 1527 1529 1531 1533 1534 1535 1536 1537 1538 1539 1540 1541 1542 1542 1543 1543 1544 1544 1545 1545 1545 1545 1545 1545 1545 1544 1544 1543 1542 1541 1540 1539 1538 1537 1535 1534 1532
1513 1515 1517 1519 1521 1523 1525 1527 1530 1532 1533 1535 1536 1537 1538 1539 1540 1541 1541 1542 1542 1543 1543 1544 1544 1545 1545 1545 1545 1545 1544 1544 1543 1543 1542 1541 1540 1539 1538 1536 1535 1533 1532
1511 1513 1515 1518 1520 1522 1524 1526 1528 1530 1532 1534 1535 1536 1538 1538 1539 1540 1540 1541 1542 1542 1543 1543 1543 1544 1544 1544 1544 1544 1544 1543 1543 1542 1541 1540 1539 1538 1537 1535 1534 1533 1531
1509 1511 1513 1516 1518 1520 1522 1524 1526 1528 1530 1532 1533 1535 1536 1537 1538 1539 1540 1541 1541 1541 1542 1542 1543 1543 1543 1543 1543 1543 1543 1543 1542 1541 1541 1540 1539 1537 1536 1534 1533 1532 1530
1507 1509 1512 1514 1517 1519 1521 1523 1525 1526 1528 1530 1532 1534 1535 1536 1537 1537 1539 1540 1540 1541 1541 1541 1542 1542 1542 1542 1542 1542 1542 1542 1541 1541 1540 1539 1538 1536 1535 1533 1532 1530 1529
1505 1507 1510 1512 1515 1517 1519 1521 1523 1525 1526 1528 1530 1532 1534 1535 1536 1537 1538 1539 1539 1540 1540 1541 1541 1541 1541 1541 1541 1541 1541 1540 1540 1540 1539 1538 1536 1535 1534 1532 1531 1529 1527
1503 1505 1508 1510 1513 1515 1517 1519 1521 1524 1525 1526 1528 1530 1532 1533 1534 1535 1536 1537 1538 1538 1539 1540 1540 1540 1540 1540 1540 1540 1539 1539 1538 1538 1537 1536 1535 1533 1532 1530 1529 1527 1525
1501 1503 1506 1508 1510 1513 1515 1517 1519 1522 1523 1524 1526 1528 1529 1531 1533 1534 1535 1536 1537 1537 1538 1538 1538 1538 1539 1538 1538 1538 1538 1537 1537 1536 1535 1534 1533 1532 1530 1529 1527 1525 1523
1500 1502 1504 1506 1508 1510 1513 1515 1517 1518 1520 1522 1524 1526 1528 1529 1531 1532 1533 1534 1535 1536 1536 1537 1537 1537 1537 1537 1536 1536 1536 1535 1535 1534 1534 1533 1531 1530 1528 1527 1525 1523 1521
1498 1500 1502 1504 1506 1508 1510 1512 1514 1516 1518 1520 1522 1524 1526 1527 1528 1530 1531 1532 1533 1534 1535 1535 1535 1535 1535 1535 1535 1534 1534 1533 1532 1532 1531 1530 1529 1528 1526 1524 1523 1521 1519
1496 1498 1499 1501 1503 1505 1506 1508 1510 1512 1514 1517 1519 1521 1523 1525 1526 1528 1529 1530 1530 1531 1532 1533 1533 1533 1533 1533 1533 1532 1531 1531 1530 1529 1529 1528 1527 1525 1523 1522 1520 1518 1516
1494 1495 1497 1499 1500 1502 1504 1506 1508 1510 1512 1514 1516 1518 1520 1522 1524 1525 1526 1527 1528 1528 1529 1530 1530 1530 1531 1530 1530 1530 1529 1529 1527 1526 1526 1525 1524 1522 1520 1519 1517 1515 1513
1491 1492 1494 1495 1497 1499 1501 1503 1505 1507 1509 1511 1513 1515 1517 1519 1521 1522 1523 1525 1525 1526 1527 1527 1527 1528 1528 1528 1528 1528 1527 1526 1525 1524 1523 1522 1521 1519 1518 1516 1514 1512 1510
1489 1490 1491 1492 1495 1497 1498 1499 1501 1503 1505 1507 1510 1511 1514 1516 1518 1519 1521 1522 1523 1524 1524 1524 1524 1525 1525 1525 1525 1525 1525 1524 1523 1521 1520 1519 1518 1517 1515 1513 1511 1509 1507
1486 1488 1489 1490 1492 1494 1495 1497 1499 1501 1503 1505 1507 1509 1511 1513 1515 1516 1517 1519 1520 1520 1521 1521 1522 1522 1522 1522 1521 1521 1521 1521 1520 1519 1517 1515 1515 1514 1512 1510 1508 1506 1504
1484 1485 1487 1488 1489 1491 1492 1494 1496 1498 1500 1502 1504 1506 1508 1510 1511 1513 1514 1515 1516 1517 1518 1518 1519 1519 1519 1519 1518 1518 1518 1518 1517 1516 1514 1512 1510 1510 1508 1507 1505 1503 1501